• In Uzbekistan
  • List of Countries
  • For 7 days
  • Water Temperature
  • Satellite Maps
  • Weather Map
  • Weather Widgets
  • user-avatar
    Login

    Hourly Weather Bad Kötzting

    Today, 22 April, Sunday

    Time Temperature Precipitation Wind Pressure Humidity
    00:00 +15°C° 0 mm 1 mps 725 mmHg 88%
    01:00 +15°C° 0 mm 1 mps 725 mmHg 89%
    02:00 +14°C° 0 mm 1 mps 725 mmHg 90%
    03:00 +14°C° 0 mm 1 mps 725 mmHg 91%
    04:00 +13°C° 0 mm 1 mps 725 mmHg 92%
    05:00 +13°C° 0 mm 0 mps 725 mmHg 88%
    06:00 +15°C° 0 mm 0 mps 725 mmHg 84%
    07:00 +16°C° 0 mm 0 mps 725 mmHg 78%
    08:00 +20°C° 0 mm 1 mps 725 mmHg 71%
    09:00 +22°C° 0 mm 1 mps 725 mmHg 64%
    10:00 +24°C° 0 mm 1 mps 725 mmHg 57%
    11:00 +25°C° 0 mm 1 mps 725 mmHg 52%
    12:00 +26°C° 0 mm 1 mps 725 mmHg 47%
    13:00 +27°C° 0 mm 1 mps 725 mmHg 41%
    14:00 +27°C° 0 mm 1 mps 724 mmHg 42%
    15:00 +26°C° 0 mm 1 mps 724 mmHg 43%
    16:00 +26°C° 0 mm 1 mps 724 mmHg 44%
    17:00 +24°C° 0.1 mm 1 mps 723 mmHg 51%
    18:00 +22°C° 0.1 mm 1 mps 723 mmHg 58%
    19:00 +21°C° 0.1 mm 1 mps 723 mmHg 64%
    20:00 +20°C° 0.1 mm 1 mps 723 mmHg 68%
    21:00 +18°C° 0.1 mm 1 mps 723 mmHg 71%
    22:00 +16°C° 0.1 mm 1 mps 723 mmHg 75%
    23:00 +16°C° 0.1 mm 1 mps 723 mmHg 76%

    Tomorrow, 23 April, Monday

    Time Temperature Precipitation Wind Pressure Humidity
    00:00 +16°C° 0.1 mm 1 mps 723 mmHg 78%
    01:00 +15°C° 0.1 mm 1 mps 724 mmHg 80%
    02:00 +15°C° 0.1 mm 1 mps 723 mmHg 82%
    03:00 +14°C° 0.1 mm 1 mps 723 mmHg 85%
    04:00 +14°C° 0.1 mm 1 mps 723 mmHg 87%
    05:00 +14°C° 0.1 mm 2 mps 723 mmHg 86%
    06:00 +15°C° 0.1 mm 2 mps 724 mmHg 85%
    07:00 +16°C° 0.1 mm 2 mps 724 mmHg 83%
    08:00 +18°C° 0 mm 2 mps 724 mmHg 76%
    09:00 +19°C° 0 mm 3 mps 724 mmHg 69%
    10:00 +21°C° 0 mm 3 mps 724 mmHg 61%
    11:00 +21°C° 0.5 mm 4 mps 724 mmHg 63%
    12:00 +21°C° 0.5 mm 5 mps 724 mmHg 65%
    13:00 +21°C° 0.5 mm 5 mps 724 mmHg 67%
    14:00 +20°C° 0.5 mm 5 mps 724 mmHg 71%
    15:00 +19°C° 0.5 mm 4 mps 724 mmHg 76%
    16:00 +17°C° 0.5 mm 4 mps 724 mmHg 80%
    17:00 +17°C° 0 mm 3 mps 724 mmHg 83%
    18:00 +16°C° 0 mm 2 mps 724 mmHg 86%
    19:00 +15°C° 0 mm 2 mps 725 mmHg 89%
    20:00 +14°C° 0 mm 2 mps 725 mmHg 91%
    21:00 +14°C° 0 mm 2 mps 725 mmHg 92%
    22:00 +14°C° 0 mm 1 mps 726 mmHg 94%
    23:00 +13°C° 0 mm 1 mps 726 mmHg 95%

    Day after tomorrow, 24 April, Tuesday

    Time Temperature Precipitation Wind Pressure Humidity
    00:00 +12°C° 0 mm 1 mps 726 mmHg 95%
    01:00 +12°C° 0 mm 1 mps 726 mmHg 96%
    02:00 +11°C° 0 mm 1 mps 726 mmHg 96%
    03:00 +11°C° 0 mm 1 mps 726 mmHg 95%
    04:00 +10°C° 0 mm 1 mps 726 mmHg 95%
    05:00 +11°C° 0 mm 1 mps 726 mmHg 93%
    06:00 +12°C° 0 mm 1 mps 726 mmHg 90%
    07:00 +12°C° 0 mm 1 mps 727 mmHg 88%
    08:00 +14°C° 0 mm 2 mps 727 mmHg 78%
    09:00 +16°C° 0 mm 3 mps 727 mmHg 68%
    10:00 +17°C° 0 mm 4 mps 727 mmHg 58%
    11:00 +18°C° 0 mm 4 mps 726 mmHg 54%
    12:00 +19°C° 0 mm 4 mps 726 mmHg 51%
    13:00 +20°C° 0 mm 4 mps 726 mmHg 47%
    14:00 +21°C° 0 mm 4 mps 725 mmHg 47%
    15:00 +21°C° 0 mm 4 mps 725 mmHg 48%
    16:00 +21°C° 0 mm 3 mps 725 mmHg 48%
    17:00 +19°C° 0 mm 3 mps 725 mmHg 56%
    18:00 +17°C° 0 mm 2 mps 724 mmHg 64%
    19:00 +16°C° 0 mm 1 mps 724 mmHg 73%
    20:00 +15°C° 0 mm 1 mps 724 mmHg 76%
    21:00 +14°C° 0 mm 1 mps 725 mmHg 80%
    22:00 +13°C° 0 mm 1 mps 725 mmHg 83%
    23:00 +12°C° 0 mm 1 mps 725 mmHg 85%

    25 April, Wednesday

    Time Temperature Precipitation Wind Pressure Humidity
    00:00 +12°C° 0 mm 1 mps 725 mmHg 86%
    01:00 +12°C° 0 mm 1 mps 725 mmHg 88%
    02:00 +11°C° 0 mm 1 mps 724 mmHg 89%
    03:00 +11°C° 0 mm 1 mps 724 mmHg 91%
    04:00 +11°C° 0 mm 1 mps 724 mmHg 93%
    05:00 +12°C° 0 mm 1 mps 724 mmHg 90%
    06:00 +13°C° 0 mm 1 mps 724 mmHg 86%
    07:00 +14°C° 0 mm 2 mps 724 mmHg 83%
    08:00 +16°C° 0 mm 2 mps 724 mmHg 75%
    09:00 +18°C° 0 mm 3 mps 724 mmHg 67%
    10:00 +19°C° 0 mm 4 mps 724 mmHg 59%
    11:00 +20°C° 0 mm 5 mps 724 mmHg 55%
    12:00 +21°C° 0 mm 5 mps 723 mmHg 51%
    13:00 +22°C° 0 mm 6 mps 723 mmHg 46%
    14:00 +22°C° 0 mm 6 mps 723 mmHg 47%
    15:00 +22°C° 0 mm 5 mps 723 mmHg 47%
    16:00 +22°C° 0 mm 5 mps 722 mmHg 47%
    17:00 +20°C° 0 mm 4 mps 722 mmHg 55%
    18:00 +18°C° 0 mm 3 mps 722 mmHg 63%
    19:00 +16°C° 0 mm 2 mps 722 mmHg 71%
    20:00 +15°C° 0 mm 2 mps 723 mmHg 77%
    21:00 +13°C° 0 mm 1 mps 723 mmHg 82%
    22:00 +12°C° 0 mm 1 mps 723 mmHg 88%
    23:00 +12°C° 0 mm 1 mps 723 mmHg 89%

    26 April, Thursday

    Time Temperature Precipitation Wind Pressure Humidity
    00:00 +12°C° 0 mm 1 mps 723 mmHg 90%
    01:00 +11°C° 0 mm 1 mps 723 mmHg 92%
    02:00 +11°C° 0 mm 1 mps 723 mmHg 91%
    03:00 +11°C° 0 mm 1 mps 723 mmHg 91%
    04:00 +12°C° 0 mm 1 mps 723 mmHg 91%
    05:00 +12°C° 0.1 mm 1 mps 723 mmHg 91%
    06:00 +12°C° 0.1 mm 2 mps 723 mmHg 91%
    07:00 +13°C° 0.1 mm 2 mps 724 mmHg 91%
    08:00 +13°C° 0.2 mm 2 mps 724 mmHg 89%
    09:00 +12°C° 0.2 mm 3 mps 724 mmHg 86%
    10:00 +12°C° 0.2 mm 3 mps 724 mmHg 84%
    11:00 +12°C° 0.1 mm 4 mps 724 mmHg 76%
    12:00 +13°C° 0.1 mm 5 mps 724 mmHg 68%
    13:00 +14°C° 0.1 mm 5 mps 724 mmHg 60%
    14:00 +14°C° 0 mm 5 mps 724 mmHg 56%
    15:00 +14°C° 0 mm 5 mps 724 mmHg 53%
    16:00 +14°C° 0 mm 5 mps 724 mmHg 49%
    17:00 +13°C° 0 mm 4 mps 725 mmHg 54%
    18:00 +11°C° 0 mm 3 mps 725 mmHg 59%
    19:00 +10°C° 0 mm 3 mps 725 mmHg 64%
    20:00 +9°C° 0 mm 2 mps 725 mmHg 66%
    21:00 +8°C° 0 mm 2 mps 725 mmHg 69%
    22:00 +7°C° 0 mm 1 mps 726 mmHg 72%
    23:00 +7°C° 0 mm 1 mps 726 mmHg 73%

    27 April, Friday

    Time Temperature Precipitation Wind Pressure Humidity
    00:00 +6°C° 0 mm 1 mps 725 mmHg 74%
    01:00 +6°C° 0 mm 1 mps 725 mmHg 75%
    02:00 +5°C° 0 mm 1 mps 725 mmHg 76%
    03:00 +5°C° 0 mm 1 mps 725 mmHg 76%
    04:00 +5°C° 0 mm 1 mps 725 mmHg 77%
    05:00 +6°C° 0 mm 1 mps 725 mmHg 72%
    06:00 +8°C° 0 mm 1 mps 725 mmHg 68%
    07:00 +9°C° 0 mm 1 mps 725 mmHg 63%
    08:00 +11°C° 0 mm 1 mps 725 mmHg 56%
    09:00 +13°C° 0 mm 1 mps 725 mmHg 50%
    10:00 +15°C° 0 mm 1 mps 725 mmHg 43%
    11:00 +16°C° 0 mm 1 mps 724 mmHg 41%
    12:00 +19°C° 0 mm 1 mps 724 mmHg 39%
    13:00 +20°C° 0 mm 1 mps 723 mmHg 37%
    14:00 +20°C° 0 mm 1 mps 723 mmHg 38%
    15:00 +20°C° 0 mm 1 mps 722 mmHg 38%
    16:00 +18°C° 0 mm 2 mps 721 mmHg 39%
    17:00 +17°C° 0 mm 2 mps 721 mmHg 47%
    18:00 +15°C° 0 mm 2 mps 721 mmHg 56%
    19:00 +13°C° 0 mm 2 mps 721 mmHg 64%
    20:00 +12°C° 0 mm 2 mps 721 mmHg 67%
    21:00 +10°C° 0 mm 2 mps 721 mmHg 70%
    22:00 +9°C° 0 mm 2 mps 721 mmHg 74%
    23:00 +8°C° 0 mm 2 mps 720 mmHg 76%
    Show more